Location: Bridgewater
(44.3670°N, 64.5170°W)
Time: 18:48:48
(UTC-03:00)

Amateur Radio Satellites - All Passes

Search period start: 31 August 2015 18:18
Search period end: 01 September 2015 18:18
Location: Bridgewater, 44.3670°N, 64.5170°W

Satellite Date Start Highest point End Downlink Frequencies (MHz)
Time Altitude Azimuth
Cosmos 2491 31 Aug 18:24:10 18:25:59 11° 47° (NE) 18:28:27 435.465 / 435.565
AIST 2 31 Aug 18:25:40 18:29:22 27° 316° (NW) 18:33:01 435.215
AIST 1 31 Aug 18:37:45 18:39:48 13° 65° (ENE) 18:42:03
CUTE-I 31 Aug 18:47:41 18:53:01 86° 255° (WSW) 18:58:23 437.470
O/OREOS (USA 219) 31 Aug 18:54:31 18:57:47 20° 102° (ESE) 19:01:12 437.305
STRAND 1 31 Aug 19:09:23 19:11:51 14° 87° (E) 19:14:34 437.568
MOZHAYETS 4 31 Aug 19:11:59 19:15:04 18° 296° (WNW) 19:18:00
CUBESAT XI-V 31 Aug 19:26:24 19:31:03 73° 102° (ESE) 19:35:42 437.345
RS-15 31 Aug 19:27:39 19:37:59 41° 328° (NNW) 19:48:42 29.354- 29.394
BRITE-PL 31 Aug 19:39:20 19:43:33 48° 72° (ENE) 19:48:08 437.365/2234.400
Cubesat XI-IV 31 Aug 19:43:37 19:48:14 29° 266° (W) 19:52:46 437.490
CUTE 1.7 + AOD 2 31 Aug 19:44:56 19:47:09 14° 63° (ENE) 19:49:31 437.475
HO-68 31 Aug 19:49:41 19:55:59 36° 62° (ENE) 20:02:26 435.675
CANX-2 31 Aug 19:57:47 20:00:58 21° 66° (ENE) 20:04:15 2200.000
PRISM 31 Aug 20:01:13 20:04:43 27° 95° (E) 20:08:17 437.425
GOMX 1 31 Aug 20:09:31 20:13:57 58° 72° (ENE) 20:18:46 467.674
AIST 1 31 Aug 20:13:40 20:17:57 61° 265° (W) 20:22:14
Cosmos 2491 31 Aug 20:17:10 20:25:39 52° 74° (ENE) 20:34:11 435.465 / 435.565
SEEDS 31 Aug 20:19:27 20:22:54 25° 68° (ENE) 20:26:25 437.485
DOVE 4 31 Aug 20:24:24 20:28:52 51° 72° (ENE) 20:33:41 437.250
Oscar 11 31 Aug 20:27:14 20:27:22 10° 60° (ENE) 20:27:44 145.826/435.025
YUBILEINY 31 Aug 20:28:48 20:35:14 25° 81° (E) 20:42:02 435.215
CUTE-I 31 Aug 20:32:17 20:34:01 11° 275° (W) 20:35:24 437.470
O/OREOS (USA 219) 31 Aug 20:32:34 20:36:55 44° 299° (WNW) 20:41:20 437.305
COMPASS 1 31 Aug 20:41:27 20:45:12 33° 70° (ENE) 20:49:00 437.405
STRAND 1 31 Aug 20:46:37 20:51:44 76° 286° (WNW) 20:56:50 437.568
AAUSAT CUBESAT 2 31 Aug 20:51:48 20:55:38 36° 70° (ENE) 20:59:29 437.432
CUBEBUG 2 31 Aug 21:04:25 21:08:21 28° 67° (ENE) 21:12:27 437.445
CUBESAT XI-V 31 Aug 21:05:27 21:07:58 14° 298° (WNW) 21:10:18 437.345
ZACube-1 31 Aug 21:06:34 21:09:37 18° 64° (ENE) 21:12:50 437.345
CINEMA 3 31 Aug 21:11:33 21:16:13 68° 74° (ENE) 21:21:08 145.822/145.860
FUNcube-1 31 Aug 21:11:51 21:15:05 20° 65° (ENE) 21:18:28 145.935
UWE-3 31 Aug 21:12:02 21:15:50 26° 67° (ENE) 21:19:46 435.000/436.395/437.385
CUTE 1.7 + AOD 2 31 Aug 21:18:21 21:22:36 62° 259° (W) 21:26:52 437.475
DELFI C3 31 Aug 21:18:25 21:21:25 21° 67° (ENE) 21:24:29 145.870
BRITE-PL 31 Aug 21:19:29 21:22:32 17° 272° (W) 21:25:34 437.365/2234.400
CANX-2 31 Aug 21:32:37 21:36:40 39° 263° (W) 21:40:43 2200.000
PRISM 31 Aug 21:36:37 21:40:07 27° 292° (WNW) 21:43:33 437.425
HO-68 31 Aug 21:36:37 21:43:33 50° 260° (W) 21:50:31 435.675
RS-15 31 Aug 21:45:19 21:54:33 27° 1° (N) 22:04:08 29.354- 29.394
GOMX 1 31 Aug 21:49:49 21:52:40 16° 274° (W) 21:55:26 467.674
DX 1 31 Aug 21:52:59 21:55:00 13° 61° (ENE) 21:57:13 434.975-435.025
HUMSAT D 31 Aug 21:53:07 21:56:19 21° 66° (ENE) 21:59:37 437.325/437.525
SEEDS 31 Aug 21:54:45 21:58:35 31° 265° (W) 22:02:23 437.485
Oscar 11 31 Aug 21:58:32 22:02:54 86° 77° (ENE) 22:07:17 145.826/435.025
50 SAT 31 Aug 22:01:36 22:01:46 10° 62° (ENE) 22:02:08 437.505
DOVE 4 31 Aug 22:03:43 22:07:03 19° 272° (W) 22:10:23 437.250
UKube-1 31 Aug 22:05:16 22:07:50 16° 63° (ENE) 22:10:34 .
AISAT 31 Aug 22:13:55 22:16:18 15° 62° (ENE) 22:18:50 437.250
Cosmos 2491 31 Aug 22:14:28 22:22:18 37° 274° (W) 22:30:00 435.465 / 435.565
COMPASS 1 31 Aug 22:17:31 22:20:56 23° 267° (W) 22:24:16 437.405
YUBILEINY 31 Aug 22:22:27 22:31:15 76° 281° (W) 22:40:08 435.215
AAUSAT CUBESAT 2 31 Aug 22:28:05 22:31:21 21° 268° (W) 22:34:30 437.432
STRAND 1 31 Aug 22:28:26 22:30:10 11° 303° (WNW) 22:31:39 437.568
CUBEBUG 2 31 Aug 22:40:42 22:44:56 34° 265° (W) 22:49:15 437.445
VELOX 1 31 Aug 22:40:48 22:44:22 25° 66° (ENE) 22:48:02 145.980
ZACube-1 31 Aug 22:41:08 22:45:35 53° 260° (W) 22:50:07 437.345
BEESAT 3 31 Aug 22:42:25 22:44:29 14° 34° (NE) 22:46:37 437.485
FUNcube-1 31 Aug 22:46:41 22:51:05 48° 262° (W) 22:55:33 145.935
UWE-3 31 Aug 22:47:58 22:52:13 36° 264° (W) 22:56:32 435.000/436.395/437.385
CINEMA 3 31 Aug 22:51:21 22:54:02 14° 274° (W) 22:56:33 145.822/145.860
TIGRISAT 31 Aug 22:51:36 22:54:26 17° 89° (E) 22:57:24 435.000
DELFI C3 31 Aug 22:52:32 22:56:16 35° 263° (W) 23:00:01 145.870
BEESAT 2 31 Aug 22:54:14 22:56:19 14° 34° (NE) 22:58:30 435.950
ANTELSAT 31 Aug 23:07:58 23:11:44 25° 93° (E) 23:15:28 437.575/2403.000
Cosmos 2504 31 Aug 23:12:47 23:19:57 37° 85° (E) 23:27:37 435.465 / 435.565
DX 1 31 Aug 23:26:26 23:30:45 70° 258° (WSW) 23:35:07 434.975-435.025
HUMSAT D 31 Aug 23:27:42 23:31:47 40° 262° (W) 23:35:54 437.325/437.525
50 SAT 31 Aug 23:31:45 23:35:43 80° 257° (WSW) 23:39:43 437.505
POLYITAN 1 31 Aug 23:33:48 23:36:32 17° 90° (E) 23:39:24 437.675
ESTCUBE 1 31 Aug 23:34:15 23:38:42 66° 73° (ENE) 23:43:11 437.505/2401.250
AUBIESAT-1 31 Aug 23:35:32 23:38:38 22° 97° (E) 23:41:36 437.475
POPSAT HIP 1 31 Aug 23:36:22 23:39:12 17° 91° (E) 23:42:09 437.405
DUCHIFAT 1 31 Aug 23:36:59 23:39:44 17° 90° (E) 23:42:37 145.980
UKube-1 31 Aug 23:39:20 23:43:34 56° 259° (W) 23:47:50 .
M-CUBED/EXP-1 PRIME 31 Aug 23:40:28 23:44:02 30° 100° (E) 23:47:21 437.505
BUGSAT 1 31 Aug 23:45:45 23:47:42 13° 88° (E) 23:49:52 437.445
SPROUT 31 Aug 23:45:51 23:49:13 23° 67° (ENE) 23:52:41 437.525
AISAT 31 Aug 23:48:01 23:52:24 64° 259° (W) 23:56:49 437.250
CUBEBUG 1 31 Aug 23:48:56 23:53:15 77° 75° (ENE) 23:57:36 437.445
QB50P2 31 Aug 23:52:43 23:56:21 27° 94° (E) 00:00:02 145.880/145.840
NANOSAT C BR1 31 Aug 23:53:50 23:57:26 26° 94° (E) 00:01:04 145.865
UNISAT 6 31 Aug 23:58:21 00:02:59 82° 103° (ESE) 00:07:28 437.425
RS-15 01 Sep 00:00:12 00:11:05 43° 34° (NNE) 00:22:29 29.354- 29.394
QB50P1 01 Sep 00:07:12 00:11:11 36° 97° (E) 00:15:11 145.935-145.965
CUSAT 1 01 Sep 00:11:07 00:14:36 29° 87° (E) 00:19:05 437.405
VELOX 1 01 Sep 00:16:47 00:20:48 33° 264° (W) 00:24:48 145.980
BEESAT 3 01 Sep 00:19:01 00:23:05 83° 54° (NE) 00:27:04 437.485
YUBILEINY 01 Sep 00:24:15 00:29:58 18° 305° (NW) 00:35:19 435.215
TIGRISAT 01 Sep 00:27:05 00:31:36 53° 288° (WNW) 00:35:57 435.000
BEESAT 2 01 Sep 00:30:57 00:35:03 83° 55° (NE) 00:39:03 435.950
DANDE 01 Sep 00:38:50 00:41:59 31° 89° (E) 00:46:04 436.750
ANTELSAT 01 Sep 00:44:24 00:48:36 35° 291° (WNW) 00:52:39 437.575/2403.000
TISAT 1 01 Sep 00:49:12 00:53:21 62° 74° (ENE) 00:57:33 437.305
Cosmos 2504 01 Sep 01:03:57 01:11:56 53° 286° (WNW) 01:20:17 435.465 / 435.565
ITUPSAT 1 01 Sep 01:05:05 01:08:21 19° 63° (ENE) 01:11:45 437.325
AIST 2 01 Sep 01:06:45 01:10:46 42° 49° (NE) 01:14:43 435.215
POLYITAN 1 01 Sep 01:08:34 01:12:44 47° 288° (WNW) 01:16:52 437.675
AUBIESAT-1 01 Sep 01:09:54 01:13:26 29° 297° (WNW) 01:16:40 437.475
POPSAT HIP 1 01 Sep 01:11:12 01:15:20 46° 289° (WNW) 01:19:26 437.405
DUCHIFAT 1 01 Sep 01:11:42 01:15:50 46° 288° (WNW) 01:19:55 145.980
ESTCUBE 1 01 Sep 01:13:54 01:16:06 13° 272° (W) 01:18:04 437.505/2401.250
M-CUBED/EXP-1 PRIME 01 Sep 01:15:25 01:18:41 23° 300° (WNW) 01:21:42 437.505
BUGSAT 1 01 Sep 01:19:23 01:23:36 60° 286° (WNW) 01:27:47 437.445
SPROUT 01 Sep 01:21:10 01:25:07 35° 264° (W) 01:29:05 437.525
QB50P2 01 Sep 01:28:27 01:32:15 30° 291° (WNW) 01:35:57 145.880/145.840
CUBEBUG 1 01 Sep 01:29:28 01:30:15 10° 274° (W) 01:30:47 437.445
NANOSAT C BR1 01 Sep 01:29:29 01:33:16 30° 291° (WNW) 01:37:00 145.865
BEESAT 01 Sep 01:37:01 01:41:23 37° 69° (ENE) 01:45:47 436.000
UNISAT 6 01 Sep 01:37:06 01:39:08 13° 300° (WNW) 01:40:56 437.425
SO-50 01 Sep 01:37:52 01:42:27 48° 119° (ESE) 01:47:13 436.795
QB50P1 01 Sep 01:43:28 01:46:52 22° 294° (WNW) 01:50:09 145.935-145.965
CUSAT 1 01 Sep 01:53:33 01:57:10 27° 296° (WNW) 02:01:39 437.405
Oscar 19 01 Sep 02:00:21 02:04:39 26° 93° (E) 02:09:01 437.125/150
SWISSCUBE 01 Sep 02:02:32 02:07:17 71° 73° (ENE) 02:12:02 437.505
RS-15 01 Sep 02:12:55 02:24:44 77° 240° (WSW) 02:36:56 29.354- 29.394
DANDE 01 Sep 02:22:27 02:25:23 20° 299° (WNW) 02:28:50 436.750
TISAT 1 01 Sep 02:27:41 02:29:36 12° 272° (W) 02:31:20 437.305
STARS 01 Sep 02:31:20 02:33:33 14° 62° (ENE) 02:35:57 437.465
PCSat 01 Sep 02:38:37 02:43:59 70° 119° (ESE) 02:49:25 145.827
ITUPSAT 1 01 Sep 02:41:11 02:45:53 55° 260° (W) 02:50:35 437.325
Gurwin Techsat 1B 01 Sep 02:41:45 02:45:36 21° 90° (E) 02:49:36 435.225
AIST 2 01 Sep 02:45:51 02:49:05 21° 246° (WSW) 02:52:11 435.215
KKS-1 01 Sep 02:48:05 02:52:00 32° 68° (ENE) 02:56:01 437.445
ITAMSAT 1 01 Sep 02:59:22 03:03:26 23° 92° (E) 03:07:37 435.822/435.867
Cosmos 2504 01 Sep 03:03:55 03:06:46 11° 312° (NW) 03:09:05 435.465 / 435.565
JAS-2 01 Sep 03:06:58 03:11:56 21° 85° (E) 03:16:43 435.910
GONETS M04 01 Sep 03:10:00 03:18:21 57° 91° (E) 03:26:50
BEESAT 01 Sep 03:15:18 03:19:19 26° 266° (W) 03:23:17 436.000
SO-50 01 Sep 03:18:59 03:23:14 29° 319° (NW) 03:27:32 436.795
Oscar 19 01 Sep 03:39:17 03:44:11 42° 291° (WNW) 03:49:02 437.125/150
SWISSCUBE 01 Sep 03:43:15 03:45:43 13° 272° (W) 03:47:56 437.505
Cosmos 2499 01 Sep 03:58:42 04:05:51 32° 84° (E) 04:13:27 435.465 / 435.565
STARS 01 Sep 04:05:06 04:09:29 69° 258° (WSW) 04:13:56 437.465
VERMONT LUNAR 01 Sep 04:17:40 04:19:44 17° 158° (SSE) 04:21:50 437.305
AO-7 01 Sep 04:18:10 04:24:59 29° 93° (E) 04:31:59 29.400- 29.500
Gurwin Techsat 1B 01 Sep 04:20:47 04:25:59 55° 289° (WNW) 04:31:09 435.225
PCSat 01 Sep 04:23:39 04:27:58 23° 319° (NW) 04:32:14 145.827
KKS-1 01 Sep 04:24:51 04:28:39 27° 266° (W) 04:32:27 437.445
RS-15 01 Sep 04:27:30 04:35:38 20° 259° (W) 04:43:08 29.354- 29.394
MOZHAYETS 4 01 Sep 04:36:57 04:41:30 62° 74° (ENE) 04:46:04
ITAMSAT 1 01 Sep 04:38:14 04:43:13 47° 290° (WNW) 04:48:09 435.822/435.867
JAS-2 01 Sep 04:50:47 04:57:57 72° 287° (WNW) 05:04:11 435.910
CUBESAT XI-V 01 Sep 04:58:13 04:59:02 11° 59° (ENE) 05:00:06 437.345
O/OREOS (USA 219) 01 Sep 05:01:30 05:06:01 52° 62° (ENE) 05:10:31 437.305
GONETS M04 01 Sep 05:07:52 05:15:41 35° 293° (WNW) 05:23:26
HORYU 2 01 Sep 05:25:00 05:29:30 79° 103° (ESE) 05:33:56 437.375
Cosmos 2499 01 Sep 05:50:06 05:58:32 62° 284° (WNW) 06:07:21 435.465 / 435.565
VERMONT LUNAR 01 Sep 05:52:58 05:55:45 36° 174° (S) 05:58:31 437.305
AO-7 01 Sep 06:10:15 06:18:29 68° 293° (WNW) 06:26:40 29.400- 29.500
MOZHAYETS 4 01 Sep 06:16:34 06:19:13 15° 272° (W) 06:21:40
Cubesat XI-IV 01 Sep 06:20:11 06:22:36 13° 87° (E) 06:25:17 437.490
STRAND 1 01 Sep 06:26:17 06:30:20 25° 65° (ENE) 06:34:30 437.568
CUBESAT XI-V 01 Sep 06:31:11 06:35:47 84° 74° (ENE) 06:40:25 437.345
YUBILEINY 01 Sep 06:36:29 06:40:06 13° 50° (NE) 06:44:18 435.215
JAS-2 01 Sep 06:37:41 06:41:43 16° 308° (NW) 06:45:15 435.910
PHONESAT 2.4 01 Sep 06:39:42 06:42:24 22° 159° (SSE) 06:45:07 2401.200-2431.200
O/OREOS (USA 219) 01 Sep 06:41:58 06:45:04 18° 259° (W) 06:48:01 437.305
PRISM 01 Sep 06:52:54 06:56:15 26° 68° (ENE) 06:59:42 437.425
CUTE-I 01 Sep 07:03:23 07:08:09 33° 95° (E) 07:12:58 437.470
HORYU 2 01 Sep 07:03:34 07:05:33 13° 300° (WNW) 07:07:20 437.375
VERMONT LUNAR 01 Sep 07:29:11 07:31:52 31° 191° (S) 07:34:34 437.305
BRITE-PL 01 Sep 07:42:29 07:46:06 18° 88° (E) 07:50:01 437.365/2234.400
Cosmos 2499 01 Sep 07:49:28 07:54:04 14° 309° (NW) 07:58:13 435.465 / 435.565
Cubesat XI-IV 01 Sep 07:58:07 08:03:28 82° 286° (WNW) 08:08:49 437.490
STRAND 1 01 Sep 08:04:27 08:09:20 45° 261° (W) 08:14:13 437.568
AO-7 01 Sep 08:04:43 08:09:58 18° 314° (NW) 08:14:53 29.400- 29.500
GOMX 1 01 Sep 08:10:04 08:13:50 19° 88° (E) 08:17:48 467.674
CUBESAT XI-V 01 Sep 08:13:02 08:13:57 10° 275° (W) 08:14:34 437.345
PHONESAT 2.4 01 Sep 08:16:38 08:19:53 42° 176° (S) 08:23:07 2401.200-2431.200
DOVE 4 01 Sep 08:22:56 08:25:51 15° 86° (E) 08:29:00 437.250
PRISM 01 Sep 08:28:03 08:31:37 28° 264° (W) 08:35:10 437.425
SO-50 01 Sep 08:28:14 08:31:14 16° 31° (NNE) 08:34:19 436.795
YUBILEINY 01 Sep 08:30:41 08:39:26 60° 76° (ENE) 08:48:06 435.215
ISS 01 Sep 08:33:36 08:35:12 13° 133° (SE) 08:36:55 145.825
CUTE-I 01 Sep 08:43:26 08:48:15 35° 293° (WNW) 08:53:00 437.470
AIST 1 01 Sep 08:44:28 08:48:41 72° 97° (E) 08:52:57
Cosmos 2504 01 Sep 08:58:38 09:02:21 14° 51° (NE) 09:06:30 435.465 / 435.565
HO-68 01 Sep 09:02:35 09:08:43 30° 93° (E) 09:14:57 435.675
CUTE 1.7 + AOD 2 01 Sep 09:02:39 09:05:42 20° 91° (E) 09:08:52 437.475
CINEMA 3 01 Sep 09:06:09 09:09:10 16° 87° (E) 09:12:21 145.822/145.860
VERMONT LUNAR 01 Sep 09:06:31 09:07:47 12° 206° (SSW) 09:09:00 437.305
CANX-2 01 Sep 09:16:14 09:19:58 30° 95° (E) 09:23:43 2200.000
BRITE-PL 01 Sep 09:19:39 09:25:07 70° 286° (WNW) 09:30:46 437.365/2234.400
Cosmos 2491 01 Sep 09:20:09 09:28:32 56° 91° (E) 09:37:00 435.465 / 435.565
UNISAT 6 01 Sep 09:25:23 09:26:54 12° 60° (ENE) 09:28:38 437.425
DANDE 01 Sep 09:34:18 09:35:38 11° 53° (NE) 09:37:34 436.750
SEEDS 01 Sep 09:36:59 09:40:52 36° 97° (E) 09:44:44 437.485
Cubesat XI-IV 01 Sep 09:40:20 09:42:50 13° 303° (WNW) 09:45:06 437.490
PCSat 01 Sep 09:42:30 09:46:00 17° 36° (NE) 09:49:37 145.827
Oscar 11 01 Sep 09:45:48 09:47:58 14° 88° (E) 09:50:21 145.826/435.025
GOMX 1 01 Sep 09:47:01 09:52:25 64° 286° (WNW) 09:57:50 467.674
TIGRISAT 01 Sep 09:51:44 09:55:03 20° 64° (ENE) 09:58:30 435.000
PHONESAT 2.4 01 Sep 09:54:20 09:57:28 34° 192° (SSW) 10:00:34 2401.200-2431.200
COMPASS 1 01 Sep 09:58:12 10:02:14 48° 99° (E) 10:06:15 437.405
DOVE 4 01 Sep 09:58:54 10:04:15 76° 286° (WNW) 10:09:31 437.250
SO-50 01 Sep 10:07:47 10:12:45 68° 52° (NE) 10:17:34 436.795
ISS 01 Sep 10:07:59 10:11:14 86° 335° (NNW) 10:14:30 145.825
AAUSAT CUBESAT 2 01 Sep 10:08:03 10:12:07 53° 100° (E) 10:16:08 437.432
ANTELSAT 01 Sep 10:08:12 10:12:12 29° 67° (ENE) 10:16:17 437.575/2403.000
AUBIESAT-1 01 Sep 10:22:52 10:27:23 46° 66° (ENE) 10:31:50 437.475
AIST 1 01 Sep 10:25:37 10:26:58 11° 296° (WNW) 10:28:07
YUBILEINY 01 Sep 10:28:14 10:35:49 32° 276° (W) 10:43:09 435.215
M-CUBED/EXP-1 PRIME 01 Sep 10:28:20 10:33:04 60° 68° (ENE) 10:37:44 437.505
ZACube-1 01 Sep 10:28:35 10:32:24 27° 93° (E) 10:36:10 437.345
POLYITAN 1 01 Sep 10:28:40 10:31:22 17° 64° (ENE) 10:34:12 437.675
DELFI C3 01 Sep 10:29:48 10:33:08 25° 94° (E) 10:36:30 145.870
CUBEBUG 2 01 Sep 10:29:48 10:34:22 47° 98° (E) 10:38:47 437.445
POPSAT HIP 1 01 Sep 10:31:03 10:33:47 17° 64° (ENE) 10:36:40 437.405
DUCHIFAT 1 01 Sep 10:31:15 10:33:53 17° 64° (ENE) 10:36:40 145.980
FUNcube-1 01 Sep 10:33:43 10:37:39 29° 94° (E) 10:41:31 145.935
UWE-3 01 Sep 10:36:01 10:40:24 42° 97° (E) 10:44:41 435.000/436.395/437.385
CUTE 1.7 + AOD 2 01 Sep 10:37:51 10:41:48 38° 289° (WNW) 10:45:42 437.475
BUGSAT 1 01 Sep 10:38:16 10:39:47 12° 62° (ENE) 10:41:30 437.445
CINEMA 3 01 Sep 10:41:53 10:46:53 63° 286° (WNW) 10:51:43 145.822/145.860
CUSAT 1 01 Sep 10:42:43 10:49:55 43° 70° (ENE) 10:57:42 437.405
QB50P2 01 Sep 10:47:16 10:50:46 26° 67° (ENE) 10:54:20 145.880/145.840
NANOSAT C BR1 01 Sep 10:48:00 10:51:26 25° 67° (ENE) 10:54:58 145.865
Cosmos 2504 01 Sep 10:48:24 10:56:52 62° 76° (ENE) 11:04:50 435.465 / 435.565
HO-68 01 Sep 10:49:50 10:56:52 57° 293° (WNW) 11:03:50 435.675
CANX-2 01 Sep 10:52:17 10:55:49 25° 292° (WNW) 10:59:14 2200.000
UNISAT 6 01 Sep 10:58:17 11:02:59 87° 76° (ENE) 11:07:44 437.425
BRITE-PL 01 Sep 11:00:46 11:02:50 12° 302° (WNW) 11:04:38 437.365/2234.400
QB50P1 01 Sep 11:01:23 11:05:13 34° 70° (ENE) 11:09:07 145.935-145.965
HUMSAT D 01 Sep 11:10:10 11:13:51 28° 95° (E) 11:17:30 437.325/437.525
SEEDS 01 Sep 11:13:14 11:16:28 21° 293° (WNW) 11:19:35 437.485
DANDE 01 Sep 11:13:22 11:20:32 49° 73° (ENE) 11:28:42 436.750
DX 1 01 Sep 11:14:01 11:16:57 18° 91° (E) 11:20:01 434.975-435.025
Cosmos 2491 01 Sep 11:18:02 11:25:53 35° 293° (WNW) 11:33:37 435.465 / 435.565
Oscar 11 01 Sep 11:20:21 11:24:36 57° 287° (WNW) 11:28:49 145.826/435.025
PCSat 01 Sep 11:24:56 11:30:24 79° 59° (ENE) 11:35:49 145.827
UKube-1 01 Sep 11:25:40 11:28:57 21° 93° (E) 11:32:18 .
TIGRISAT 01 Sep 11:26:53 11:31:27 51° 261° (W) 11:36:04 435.000
ESTCUBE 1 01 Sep 11:27:13 11:28:56 12° 87° (E) 11:30:55 437.505/2401.250
GOMX 1 01 Sep 11:28:23 11:29:38 11° 303° (WNW) 11:30:34 467.674
PHONESAT 2.4 01 Sep 11:33:06 11:34:47 13° 208° (SSW) 11:36:24 2401.200-2431.200
COMPASS 1 01 Sep 11:34:52 11:37:33 16° 295° (WNW) 11:40:05 437.405
AISAT 01 Sep 11:37:32 11:40:57 22° 93° (E) 11:44:27 437.250
CUBEBUG 1 01 Sep 11:37:48 11:39:45 13° 88° (E) 11:41:54 437.445
DOVE 4 01 Sep 11:38:59 11:41:10 12° 302° (WNW) 11:43:08 437.250
ANTELSAT 01 Sep 11:44:37 11:48:52 33° 264° (W) 11:53:09 437.575/2403.000
AAUSAT CUBESAT 2 01 Sep 11:44:50 11:47:19 15° 296° (WNW) 11:49:40 437.432
ISS 01 Sep 11:45:10 11:47:58 26° 348° (NNW) 11:50:47 145.825
SO-50 01 Sep 11:49:32 11:52:48 17° 249° (WSW) 11:55:51 436.795
AUBIESAT-1 01 Sep 11:58:29 12:02:14 22° 262° (W) 12:05:51 437.475
POLYITAN 1 01 Sep 12:02:44 12:06:54 51° 261° (W) 12:11:07 437.675
ZACube-1 01 Sep 12:04:45 12:08:47 32° 291° (WNW) 12:12:40 437.345
DELFI C3 01 Sep 12:04:45 12:08:10 27° 291° (WNW) 12:11:30 145.870
M-CUBED/EXP-1 PRIME 01 Sep 12:04:54 12:08:11 18° 265° (W) 12:11:16 437.505
VELOX 1 01 Sep 12:05:04 12:09:16 39° 98° (E) 12:13:28 145.980
POPSAT HIP 1 01 Sep 12:05:11 12:09:19 49° 261° (W) 12:13:30 437.405
DUCHIFAT 1 01 Sep 12:05:11 12:09:19 51° 261° (W) 12:13:30 145.980
CUBEBUG 2 01 Sep 12:07:11 12:10:42 21° 296° (WNW) 12:14:04 437.445
FUNcube-1 01 Sep 12:10:00 12:13:55 29° 292° (WNW) 12:17:41 145.935
BUGSAT 1 01 Sep 12:10:40 12:14:44 70° 258° (WSW) 12:18:52 437.445
UWE-3 01 Sep 12:13:05 12:16:40 22° 295° (WNW) 12:20:04 435.000/436.395/437.385
QB50P2 01 Sep 12:22:43 12:26:32 31° 264° (W) 12:30:22 145.880/145.840
NANOSAT C BR1 01 Sep 12:23:18 12:27:09 32° 264° (W) 12:30:58 145.865
CUSAT 1 01 Sep 12:25:12 12:32:36 49° 267° (W) 12:40:22 437.405
QB50P1 01 Sep 12:37:45 12:41:10 23° 267° (W) 12:44:32 145.935-145.965
UNISAT 6 01 Sep 12:39:19 12:40:30 11° 275° (W) 12:41:24 437.425
50 SAT 01 Sep 12:39:35 12:43:27 66° 286° (WNW) 12:47:15 437.505
HO-68 01 Sep 12:40:05 12:43:14 13° 312° (NW) 12:46:02 435.675
Cosmos 2504 01 Sep 12:41:23 12:48:34 31° 277° (W) 12:55:13 435.465 / 435.565
HUMSAT D 01 Sep 12:45:53 12:49:31 27° 292° (WNW) 12:53:03 437.325/437.525
DX 1 01 Sep 12:49:15 12:53:28 46° 289° (WNW) 12:57:40 434.975-435.025
DANDE 01 Sep 12:56:37 13:03:40 42° 268° (W) 13:11:24 436.750
UKube-1 01 Sep 13:01:10 13:05:13 38° 290° (WNW) 13:09:14 .
ESTCUBE 1 01 Sep 13:01:53 13:06:23 70° 286° (WNW) 13:10:51 437.505/2401.250
SPROUT 01 Sep 13:05:49 13:09:48 34° 96° (E) 13:13:47 437.525
PCSat 01 Sep 13:09:56 13:13:13 16° 254° (WSW) 13:16:15 145.827
CUBEBUG 1 01 Sep 13:12:12 13:16:36 65° 286° (WNW) 13:20:59 437.445
AISAT 01 Sep 13:13:29 13:17:41 40° 290° (WNW) 13:21:52 437.250
GONETS M04 01 Sep 13:18:13 13:25:41 31° 65° (ENE) 13:33:22
Oscar 19 01 Sep 13:18:34 13:23:26 45° 70° (ENE) 13:28:23 437.125/150
JAS-2 01 Sep 13:21:27 13:25:44 17° 52° (NE) 13:30:20 435.910
ISS 01 Sep 13:22:21 13:25:05 24° 8° (N) 13:27:48 145.825
AO-7 01 Sep 13:32:42 13:35:31 12° 40° (NE) 13:38:46 29.400- 29.500
VELOX 1 01 Sep 13:42:04 13:45:36 23° 294° (WNW) 13:49:03 145.980
Cosmos 2499 01 Sep 13:49:09 13:52:41 13° 49° (NE) 13:56:41 435.465 / 435.565
SWISSCUBE 01 Sep 14:02:28 14:05:16 16° 89° (E) 14:08:15 437.505
Gurwin Techsat 1B 01 Sep 14:04:08 14:08:58 38° 68° (ENE) 14:13:54 435.225
TISAT 1 01 Sep 14:07:26 14:11:44 89° 309° (NW) 14:16:01 437.305
ITAMSAT 1 01 Sep 14:18:44 14:23:33 42° 69° (ENE) 14:28:26 435.822/435.867
RS-15 01 Sep 14:35:06 14:38:21 12° 96° (E) 14:42:40 29.354- 29.394
ITUPSAT 1 01 Sep 14:40:13 14:44:31 33° 96° (E) 14:48:49 437.325
SPROUT 01 Sep 14:42:12 14:45:43 24° 293° (WNW) 14:49:10 437.525
HORYU 2 01 Sep 14:51:49 14:52:59 11° 59° (ENE) 14:54:22 437.375
ISS 01 Sep 14:58:41 15:01:55 64° 28° (NNE) 15:05:09 145.825
Oscar 19 01 Sep 14:58:46 15:03:01 25° 268° (W) 15:07:12 437.125/150
JAS-2 01 Sep 15:01:52 15:09:29 65° 71° (ENE) 15:17:15 435.910
BEESAT 01 Sep 15:12:45 15:17:32 71° 103° (ESE) 15:22:15 436.000
GONETS M04 01 Sep 15:14:35 15:23:16 65° 267° (W) 15:31:56
AO-7 01 Sep 15:18:38 15:26:25 47° 62° (ENE) 15:34:17 29.400- 29.500
SWISSCUBE 01 Sep 15:38:53 15:43:35 60° 288° (WNW) 15:48:16 437.505
Cosmos 2499 01 Sep 15:39:46 15:48:21 59° 75° (ENE) 15:56:23 435.465 / 435.565
Gurwin Techsat 1B 01 Sep 15:44:23 15:49:03 30° 266° (W) 15:53:41 435.225
TISAT 1 01 Sep 15:46:13 15:46:52 10° 300° (WNW) 15:47:17 437.305
BEESAT 3 01 Sep 15:49:59 15:54:03 89° 299° (WNW) 15:58:10 437.485
STARS 01 Sep 15:53:55 15:57:06 19° 92° (E) 16:00:23 437.465
ITAMSAT 1 01 Sep 15:58:54 16:03:15 26° 267° (W) 16:07:30 435.822/435.867
BEESAT 2 01 Sep 16:03:01 16:07:07 87° 304° (NW) 16:11:16 435.950
KKS-1 01 Sep 16:13:23 16:17:48 51° 100° (E) 16:22:10 437.445
ITUPSAT 1 01 Sep 16:18:12 16:22:20 29° 293° (WNW) 16:26:24 437.325
HORYU 2 01 Sep 16:24:27 16:28:58 88° 73° (ENE) 16:33:30 437.375
MOZHAYETS 4 01 Sep 16:32:14 16:34:12 13° 87° (E) 16:36:24
ISS 01 Sep 16:35:41 16:38:04 19° 224° (SW) 16:40:24 145.825
RS-15 01 Sep 16:37:54 16:48:30 62° 116° (ESE) 16:59:37 29.354- 29.394
AIST 2 01 Sep 16:43:57 16:48:04 52° 120° (ESE) 16:52:13 435.215
JAS-2 01 Sep 16:48:22 16:55:02 30° 270° (W) 17:01:38 435.910
BEESAT 01 Sep 16:52:03 16:54:51 15° 299° (WNW) 16:57:29 436.000
CUTE-I 01 Sep 16:52:44 16:52:49 10° 55° (NE) 16:53:12 437.470
AO-7 01 Sep 17:11:23 17:19:19 45° 261° (W) 17:27:10 29.400- 29.500
GONETS M04 01 Sep 17:15:07 17:18:32 12° 286° (WNW) 17:21:19
STARS 01 Sep 17:29:32 17:33:47 43° 289° (WNW) 17:37:58 437.465
BEESAT 3 01 Sep 17:30:14 17:32:36 15° 325° (NW) 17:34:53 437.485
Cosmos 2499 01 Sep 17:33:37 17:41:04 32° 276° (W) 17:47:56 435.465 / 435.565
Cubesat XI-IV 01 Sep 17:43:02 17:47:26 28° 65° (ENE) 17:51:55 437.490
BEESAT 2 01 Sep 17:43:27 17:45:49 14° 325° (NW) 17:48:05 435.950
KKS-1 01 Sep 17:50:56 17:54:04 18° 296° (WNW) 17:57:05 437.445
MOZHAYETS 4 01 Sep 18:07:27 18:12:00 68° 285° (WNW) 18:16:30
